Theta_e
288 287 283 283 284 283 283 281 280 283 286 283 283 283 285 287 285 284 285 286 286 287 289 290 291 293 294 296 297 298 299 301 303 304 305 307 307 311 314 316 322 325 327 331
286 283 284 285 285 283 282 280 280 283 285 282 282 282 284 284 283 284 285 285 285 286 286 288 289 291 293 294 297 298 300 300 302 304 307 307 309 312 314 314 317 320 326 329
282 283 285 284 283 282 283 280 281 279 282 283 281 281 282 284 284 285 286 286 286 285 284 286 287 289 292 294 296 298 300 301 301 304 307 308 310 311 310 312 316 317 324 327
283 285 283 283 281 282 278 284 282 279 277 277 281 275 280 281 282 283 284 284 284 284 285 286 286 288 290 292 295 299 300 301 301 304 306 305 306 305 309 310 315 316 319 326
283 282 282 280 282 283 281 284 281 277 275 276 276 275 280 279 279 280 282 283 283 284 284 285 286 287 290 291 295 299 300 300 300 304 305 306 306 309 311 310 311 313 316 322
283 284 283 283 284 284 284 281 276 275 277 274 273 274 277 278 276 279 281 281 282 282 283 284 286 288 289 291 295 297 302 301 300 304 305 306 306 307 308 308 309 309 312 320
279 280 282 283 282 284 282 279 276 274 274 273 273 273 278 278 280 280 279 280 281 282 282 282 283 285 287 289 292 295 299 299 300 303 305 305 305 307 307 307 307 308 308 316
275 277 281 282 281 279 278 277 274 267 270 272 276 272 277 280 283 282 281 280 281 281 281 282 283 285 287 288 290 292 294 296 299 304 304 307 308 309 308 308 308 309 308 316
276 277 280 281 283 282 278 276 277 272 269 268 274 275 279 281 281 280 279 279 278 279 280 281 282 284 286 287 288 290 292 294 296 298 300 300 304 305 305 309 311 309 309 311
276 274 278 280 283 281 281 279 274 274 268 267 272 270 273 276 277 278 277 277 277 279 279 280 281 283 285 286 287 289 290 291 293 294 295 297 299 300 300 303 306 306 305 305
279 274 278 278 279 279 279 277 275 275 273 269 268 273 278 277 278 277 277 277 277 278 278 279 281 282 284 284 286 287 288 289 290 292 294 294 295 296 297 299 300 301 299 299
280 276 272 277 280 282 280 279 277 273 270 274 272 273 282 280 280 280 277 278 278 278 278 279 280 281 282 282 283 285 286 287 288 289 290 291 291 293 294 294 295 295 295 295
280 275 272 276 277 279 278 280 279 276 275 272 270 273 284 282 280 281 278 278 278 278 278 278 279 280 280 281 282 283 284 285 287 287 288 288 288 289 290 291 292 292 291 291
283 276 273 273 275 275 274 277 278 276 272 273 273 275 278 279 278 279 278 278 278 278 277 277 278 279 280 281 281 282 282 284 285 286 285 285 286 287 288 289 289 289 290 290
280 272 273 274 275 274 273 273 274 272 274 272 273 272 276 279 279 279 279 278 277 277 277 277 277 278 279 280 281 281 282 282 284 283 284 283 285 285 286 286 286 287 287 288
277 273 269 268 273 275 273 276 276 273 274 271 273 271 279 282 282 280 279 277 276 276 276 276 276 277 277 278 280 280 281 282 283 282 282 283 284 284 284 285 285 285 286 286
275 272 269 271 269 270 271 274 276 277 276 275 271 278 278 277 279 279 278 276 276 276 275 275 275 276 276 277 279 279 280 281 281 281 281 282 282 282 282 283 284 283 283 284
269 270 268 270 269 270 280 278 278 277 279 275 275 275 276 278 279 280 278 277 276 275 275 275 275 275 275 276 278 279 280 279 280 279 280 281 282 282 282 282 282 282 283 282
276 272 270 268 268 274 276 275 277 277 279 281 278 277 277 279 279 280 278 278 276 275 275 275 275 274 275 275 277 277 277 279 278 279 279 280 281 281 281 281 281 282 282 282
274 273 271 265 267 269 277 278 279 279 275 280 280 279 278 278 275 277 278 277 276 275 275 274 274 273 273 274 277 276 275 275 276 278 279 280 281 281 281 282 281 282 283 282
269 268 268 267 268 271 277 278 279 274 277 279 280 279 278 277 278 279 278 276 275 275 274 274 274 272 271 272 275 274 273 272 274 277 278 279 280 281 281 281 282 283 283 283
267 265 264 262 265 268 278 276 276 282 278 280 279 279 278 278 278 278 277 275 274 274 273 273 272 271 270 270 272 271 270 270 274 276 277 278 279 280 280 280 281 282 282 281
269 274 273 272 274 278 279 281 281 280 280 279 279 279 280 278 278 278 277 276 274 273 273 271 271 271 269 268 268 269 268 269 272 274 274 277 278 279 279 281 281 282 282 282
271 270 273 272 278 275 277 280 279 281 280 280 280 280 279 278 277 277 276 275 274 272 271 269 269 269 268 267 267 266 267 268 271 272 273 276 278 280 280 280 281 281 282 281
274 271 272 272 275 275 275 276 281 280 279 277 277 279 279 278 277 277 276 276 275 273 269 268 268 268 266 266 266 265 265 267 271 272 272 275 277 280 280 280 280 280 280 281
272 274 274 277 280 280 280 279 278 280 278 278 277 274 276 278 278 277 277 276 275 272 270 269 269 268 267 266 266 265 264 267 270 271 272 272 275 278 280 280 280 282 281 281
Wind_Speed
4 2 5 5 3 4 9 12 16 19 9 18 12 23 18 10 8 5 10 14 18 21 22 20 20 19 18 17 17 17 16 15 11 10 10 9 10 6 2 2 9 11 9 14
1 2 0 4 5 6 9 12 11 13 10 14 12 20 3 4 4 4 11 17 22 24 23 22 21 20 18 18 18 17 16 15 13 10 9 8 6 8 2 3 4 12 13 12
1 3 3 3 5 7 10 6 15 20 25 6 11 6 7 4 4 7 15 21 24 23 22 24 22 21 20 18 19 18 18 16 13 13 9 9 9 7 4 3 2 4 15 6
3 1 3 5 3 6 6 10 19 18 8 5 7 7 4 3 6 9 21 26 25 24 23 21 22 22 19 20 19 19 18 16 13 14 11 14 10 10 7 2 3 5 12 5
2 2 4 3 5 6 9 21 14 4 2 6 3 5 1 2 7 19 24 26 23 23 22 23 22 22 19 17 17 16 15 14 13 13 12 10 11 8 8 4 2 7 13 10
4 1 3 3 10 2 15 9 0 2 2 4 5 6 5 5 9 25 26 24 23 22 22 22 22 20 16 16 15 14 12 11 11 11 12 13 10 10 7 7 6 3 9 11
5 2 1 2 6 3 9 7 6 4 3 5 4 8 7 2 13 22 28 26 24 22 20 20 21 20 16 17 15 13 13 6 8 7 10 9 11 12 12 7 3 8 6 11
4 3 1 2 2 4 5 5 3 8 8 12 6 5 5 3 16 21 21 21 22 21 19 19 20 18 14 15 14 14 13 9 6 5 1 4 4 4 7 6 5 5 2 10
2 5 1 1 3 3 2 3 2 6 2 5 4 4 5 7 16 20 23 22 21 21 20 20 20 17 16 13 13 13 13 10 9 7 6 5 5 3 3 4 5 3 2 7
3 6 1 2 2 2 2 3 2 2 7 9 4 5 9 20 23 22 24 21 20 20 20 19 17 17 15 13 12 12 12 11 9 8 6 5 6 4 4 5 5 5 5 5
4 0 1 3 4 3 3 1 1 3 4 5 8 4 3 15 19 19 20 20 18 18 17 16 16 15 15 13 12 12 12 12 10 9 7 5 5 4 3 4 3 2 7 4
5 2 6 4 2 1 1 3 3 2 1 6 5 7 2 12 15 12 16 17 17 15 16 15 15 14 14 14 14 12 11 10 9 8 7 5 4 3 2 0 2 4 6 3
7 2 6 3 3 4 6 6 6 3 3 8 4 6 7 13 15 14 16 16 15 15 15 15 15 15 15 14 13 13 12 11 9 8 6 5 5 4 4 2 4 8 8 5
6 4 6 7 5 2 6 7 9 4 4 4 10 13 7 12 16 17 17 16 16 15 16 15 14 14 15 13 12 12 12 11 10 8 7 7 5 6 5 5 5 12 7 6
4 5 5 12 16 11 13 14 13 12 8 7 3 6 13 4 10 12 12 15 16 17 17 16 15 14 14 14 13 12 11 11 9 9 8 8 7 6 6 6 10 10 9 9
4 2 1 7 4 6 14 16 14 12 9 11 14 14 5 4 6 9 13 15 15 16 17 17 16 16 15 15 14 13 12 11 10 10 10 9 7 7 7 8 11 11 13 10
5 3 1 6 4 8 8 8 12 7 6 6 7 3 3 3 4 4 10 11 14 14 14 15 15 13 13 14 13 14 12 11 12 12 12 11 8 9 7 11 14 14 13 15
6 4 1 6 5 4 1 3 3 9 9 12 6 4 6 5 3 4 3 6 9 11 13 12 11 12 13 13 14 12 13 14 13 14 13 11 9 8 12 13 15 13 13 14
2 4 2 3 3 9 3 5 6 6 8 11 13 5 4 4 3 4 2 3 4 5 8 9 8 9 10 11 12 11 13 13 15 14 13 14 11 11 12 14 13 12 14 12
6 6 2 2 4 6 1 3 3 3 6 5 10 7 7 5 3 2 1 1 2 3 4 6 9 9 10 12 11 10 10 10 12 12 10 9 9 10 11 12 12 12 12 13
5 3 7 6 6 12 7 6 4 2 2 6 10 7 8 4 1 5 3 3 1 1 4 5 7 8 9 11 10 11 11 12 10 9 7 7 8 9 8 9 10 11 11 11
10 10 6 3 4 11 9 6 8 1 2 7 8 7 7 6 6 5 4 4 2 1 3 5 5 7 8 9 8 8 9 9 9 8 9 10 9 6 6 9 8 8 8 11
5 8 6 13 9 1 15 1 4 3 4 6 9 8 8 8 6 6 5 4 4 2 1 3 4 5 6 7 7 6 8 9 8 7 7 6 6 7 7 8 8 8 8 8
7 5 5 1 7 17 13 13 5 6 4 6 6 10 10 8 8 6 4 4 4 3 1 1 2 3 5 6 6 5 5 6 3 3 5 6 8 8 7 7 6 7 7 7
2 10 6 8 12 7 14 14 14 10 5 5 5 8 11 7 7 7 6 6 5 3 3 3 1 1 3 4 5 6 7 7 5 6 6 7 6 7 8 8 8 7 8 8
9 10 9 11 9 4 5 4 13 16 13 12 11 6 4 7 9 7 6 4 4 4 3 4 3 1 1 2 2 3 4 5 3 4 4 4 4 4 5 7 8 17 16 16
Wind_Direction
37 76 38 15 18 299 291 290 294 304 323 319 301 300 319 350 89 50 2 346 338 330 323 318 317 314 310 301 297 291 283 278 266 253 248 244 241 234 152 18 318 300 275 244
187 74 39 303 289 290 295 296 307 307 311 321 309 303 48 121 117 31 350 343 336 326 324 321 318 314 311 303 299 290 283 275 260 249 244 255 250 238 217 182 222 305 282 243
313 84 297 281 320 332 310 261 311 309 321 277 302 268 211 198 242 317 343 338 330 327 325 320 316 315 311 307 303 291 284 276 266 252 237 241 244 242 248 291 55 289 285 189
258 330 306 303 292 346 299 329 316 310 319 319 14 302 261 235 298 338 340 336 327 331 326 319 316 313 313 309 301 291 282 268 262 248 227 234 230 240 226 200 295 332 305 238
39 301 332 290 346 337 275 317 322 313 215 299 143 268 299 337 355 339 336 335 329 328 326 323 319 315 311 307 297 299 282 267 261 239 228 231 233 243 237 211 326 18 290 288
278 330 250 306 312 287 309 313 143 131 264 258 119 355 286 14 346 337 336 330 329 328 327 326 322 317 319 314 313 315 291 271 258 230 230 225 235 234 226 230 237 86 303 275
325 198 243 285 307 202 353 331 342 323 292 303 141 307 307 149 349 345 331 328 330 331 330 328 325 325 323 321 321 330 341 312 239 230 228 235 235 233 232 214 247 213 291 269
343 295 79 15 8 315 20 11 15 307 320 312 309 243 346 306 338 338 331 330 330 333 332 332 329 325 321 324 325 336 351 4 360 308 298 290 248 265 239 232 197 235 306 302
287 268 278 230 337 308 67 359 343 263 191 264 282 267 246 329 333 341 341 339 336 335 335 333 331 329 328 327 329 334 343 351 358 352 354 310 315 340 321 285 251 228 98 287
169 287 141 294 176 64 348 62 243 178 307 312 305 279 307 335 341 341 341 336 333 333 336 334 333 331 331 329 333 338 342 343 348 354 344 335 315 310 323 290 252 226 90 300
166 309 175 235 201 189 160 197 177 270 262 302 312 4 265 343 337 331 333 332 333 333 335 333 329 332 333 332 341 343 343 341 345 342 331 344 325 333 317 273 243 222 78 286
192 157 272 264 98 14 284 245 224 257 263 243 273 281 236 4 335 325 333 333 335 333 336 335 337 338 341 345 346 343 343 338 340 327 341 352 347 357 3 251 116 92 95 56
164 195 297 233 146 149 237 207 219 214 267 242 281 302 30 358 343 343 341 340 340 339 342 343 345 351 352 349 347 347 347 347 349 347 353 14 17 44 52 49 105 102 95 87
182 202 235 258 295 4 245 232 220 229 257 283 251 288 334 355 338 342 344 342 345 349 350 350 351 352 352 350 350 350 355 356 2 7 21 40 27 47 61 63 73 72 82 83
200 242 241 257 267 254 258 259 248 215 223 246 315 258 300 304 319 331 335 343 350 352 353 354 353 352 352 355 358 357 6 9 11 20 25 30 34 38 59 76 77 87 96 86
181 249 280 279 264 227 270 257 244 231 237 253 271 283 229 239 304 346 343 349 353 353 350 351 352 354 357 356 360 5 9 18 24 31 31 27 30 51 60 92 88 87 78 83
174 183 234 267 348 307 267 234 199 213 194 185 219 219 160 253 287 333 335 348 341 348 346 347 348 350 354 356 0 10 9 20 30 35 33 27 32 53 61 72 76 76 75 73
139 135 213 283 310 256 298 182 226 237 254 214 260 225 230 243 262 294 29 321 328 338 339 341 344 345 350 352 1 6 16 25 28 29 30 29 40 49 61 69 68 68 73 71
156 140 205 275 271 302 247 195 200 197 283 220 222 196 239 235 240 197 33 313 311 325 326 331 343 353 346 3 356 7 20 22 22 17 23 17 16 42 60 63 70 68 73 70
115 83 260 168 244 251 259 172 182 166 276 176 186 172 168 186 233 121 131 297 321 356 344 346 360 4 2 0 8 22 25 26 21 14 18 20 26 45 68 75 73 77 78 74
159 169 221 207 256 279 238 160 166 208 298 168 181 164 167 186 6 115 157 169 184 18 10 7 22 23 8 357 3 26 24 21 0 4 6 32 50 59 60 73 77 87 87 86
175 158 190 134 217 270 154 109 201 202 117 168 169 173 180 144 164 160 177 172 164 153 49 22 26 32 16 10 10 24 24 347 348 360 23 24 24 47 64 67 68 70 84 93
234 209 181 204 214 21 202 265 201 190 160 182 175 175 174 161 189 191 182 196 195 222 50 47 20 17 30 22 19 26 356 345 354 20 21 32 41 49 46 65 68 70 63 65
225 164 235 187 217 231 225 228 252 214 215 173 183 172 170 174 170 189 206 213 211 205 196 348 359 47 26 8 20 8 342 326 333 57 61 59 62 68 68 71 64 66 62 67
158 151 193 259 274 260 250 228 220 212 186 170 167 182 181 160 178 185 195 206 215 197 179 210 228 27 31 5 11 357 348 343 19 38 43 56 57 68 72 64 68 64 54 56
187 189 202 245 234 224 244 200 208 194 191 192 171 180 194 178 178 186 193 187 179 194 210 217 208 178 70 9 24 11 358 354 4 63 50 44 68 47 69 89 85 69 71 66